Weather History for KNYC - June, 2012

Change the Weather History Date:

Tuesday, June 12, 2012

  Actual Average Record
Temperature  
Mean Temperature 69 °F 71 °F  
Max Temperature 72 °F 78 °F 93 °F (1973)
Min Temperature 65 °F 63 °F 48 °F (1979)
Degree Days  
Heating Degree Days 0 1  
Month to date heating degree days 15 15  
Since 1 June heating degree days 15 15  
Since 1 July heating degree days 3715 4746  
Cooling Degree Days 4 6  
Month to date cooling degree days 43 61  
Year to date cooling degree days 158 130  
Since 1 June cooling degree days 43 61  
Growing Degree Days 17 (Base 50)    
Moisture  
Dew Point 64 °F    
Average Humidity 89    
Maximum Humidity 100    
Minimum Humidity 78    
Precipitation  
Precipitation 1.02 in 0.16 in 2.18 in (1910)
Month to date precipitation 1.88 1.92  
Year to date precipitation 16.38 21.71  
Snow  
Snow 0.00 in 0.00 in 0.00 in (2002)
Month to date snowfall 0.0 0.0  
Since 1 July snowfall 7.4 25.8  
Snow Depth 0.00 in    
Sea Level Pressure  
Sea Level Pressure 30.05 in    
Wind  
Wind Speed 6 mph (SSE)    
Max Wind Speed 13 mph    
Max Gust Speed 19 mph    
Visibility 5 miles    
Events Rain    
T = Trace of Precipitation, MM = Missing Value Source: NWS Daily Summary

Daily Weather History Graph

Daily Weather History Graph

Search for Another Location

Airport or City:

Trip Planner

Search our weather history database for the weather conditions in past years. The results will help you decide how hot, cold, wet, or windy it might be!

Date:

Astronomy

Jun. 12, 2012 Rise Set
Actual Time 5:23 AM EDT 8:27 PM EDT
Civil Twilight 4:50 AM EDT 9:01 PM EDT
Nautical Twilight 4:08 AM EDT 9:43 PM EDT
Astronomical Twilight 3:18 AM EDT 10:33 PM EDT
Moon 1:10 AM EDT (6/12) 2:12 PM EDT (6/12)
Length of Visible Light 16h 10m
Length of Day
15h 04m
Last Quarter, 38% of the Moon is Illuminated
Jun 12
Last Quarter
Jun 19
New
Jun 26
First Quarter
Jul 3
Full
Jul 10
Last Quarter

Hourly Weather History & Observations

Time (EDT) Temp. Dew Point Humidity Pressure Visibility Wind Dir Wind Speed Gust Speed Precip Events Conditions
12:51 AM 64.9 °F 60.1 °F 84% 30.18 in 10.0 mi Variable 4.6 mph - N/A   Partly Cloudy
1:51 AM 64.9 °F 61.0 °F 87% 30.16 in 10.0 mi Calm Calm - N/A   Mostly Cloudy
2:51 AM 66.0 °F 61.0 °F 84% 30.14 in 10.0 mi Variable 6.9 mph - N/A   Overcast
3:51 AM 66.0 °F 61.0 °F 84% 30.12 in 10.0 mi Variable 6.9 mph - N/A   Overcast
4:49 AM 66.2 °F 60.8 °F 83% 30.14 in 10.0 mi Variable 4.6 mph - N/A   Overcast
4:51 AM 66.0 °F 61.0 °F 84% 30.12 in 10.0 mi Variable 4.6 mph - N/A   Overcast
5:00 AM 66.0 °F 61.0 °F 84% 30.14 in 10.0 mi North - - N/A   Overcast
5:28 AM 66.0 °F 61.0 °F 84% 30.14 in 10.0 mi North - - N/A   Overcast
5:48 AM 66.2 °F 60.8 °F 83% 30.14 in 10.0 mi SE 8.1 mph - N/A   Overcast
5:51 AM 66.0 °F 60.1 °F 81% 30.12 in 10.0 mi Variable 4.6 mph - N/A   Overcast
5:58 AM 66.0 °F 60.1 °F 81% 30.14 in 10.0 mi SSE 5.8 mph - N/A   Overcast
6:51 AM 66.0 °F 61.0 °F 84% 30.12 in 10.0 mi Variable 3.5 mph - N/A   Overcast
7:00 AM 66.0 °F 61.0 °F 84% 30.14 in 10.0 mi South 5.8 mph - N/A   Overcast
7:51 AM 66.0 °F 61.0 °F 84% 30.11 in 9.0 mi Variable 6.9 mph - N/A   Overcast
8:14 AM 66.9 °F 61.0 °F 81% 30.13 in 1.2 mi North - - N/A   Haze
8:33 AM 68.0 °F 62.1 °F 81% 30.12 in 5.0 mi SSE 9.2 mph - N/A   Haze
8:51 AM 69.1 °F 62.1 °F 78% 30.09 in 3.0 mi Variable 5.8 mph 18.4 mph N/A   Haze
8:57 AM 69.1 °F 62.1 °F 78% 30.12 in 1.8 mi North - - N/A   Haze
9:13 AM 68.0 °F 62.1 °F 81% 30.11 in 2.5 mi South 4.6 mph - N/A   Haze
9:22 AM 68.0 °F 63.0 °F 84% 30.11 in 9.0 mi Variable 4.6 mph - N/A   Overcast
9:51 AM 70.0 °F 63.0 °F 78% 30.08 in 4.0 mi Variable 4.6 mph - N/A   Haze
10:13 AM 70.0 °F 63.0 °F 78% 30.10 in 1.8 mi Variable 4.6 mph - N/A   Haze
10:30 AM 70.0 °F 63.0 °F 78% 30.10 in 10.0 mi Variable 6.9 mph - N/A   Overcast
10:51 AM 70.0 °F 64.0 °F 81% 30.07 in 1.2 mi Calm Calm - N/A   Haze
11:32 AM 70.0 °F 64.0 °F 81% 30.08 in 4.0 mi Variable 5.8 mph - N/A   Haze
11:51 AM 70.0 °F 64.0 °F 81% 30.06 in 10.0 mi South 10.4 mph 17.3 mph N/A   Mostly Cloudy
12:51 PM 68.0 °F 66.0 °F 93% 30.05 in 4.0 mi South 8.1 mph - 0.03 in Rain Light Rain
1:51 PM 66.9 °F 66.0 °F 97% 30.04 in 5.0 mi Variable 5.8 mph - 0.02 in Rain Light Rain
2:14 PM 66.9 °F 66.0 °F 97% 30.06 in 1.8 mi Variable 3.5 mph - 0.03 in Rain Rain
2:51 PM 66.9 °F 66.0 °F 97% 30.03 in 2.5 mi South 8.1 mph - 0.11 in Rain Light Rain
3:34 PM 66.9 °F 66.0 °F 97% 30.03 in 3.0 mi North - - 0.05 in Rain Light Rain
3:51 PM 66.9 °F 66.0 °F 97% 30.00 in 2.0 mi North - - 0.07 in Rain Light Rain
4:09 PM 66.9 °F 66.0 °F 97% 30.02 in 1.8 mi North - - 0.02 in Rain Rain
4:31 PM 66.9 °F 66.0 °F 97% 30.01 in 1.5 mi Variable 4.6 mph - 0.06 in Rain Rain
4:49 PM 66.2 °F 66.2 °F 100% 30.00 in 2.0 mi Variable 3.5 mph - 0.08 in Rain Light Rain
4:51 PM 66.9 °F 66.0 °F 97% 29.98 in 1.5 mi North - - 0.09 in Rain Rain
5:34 PM 66.9 °F 66.0 °F 97% 29.99 in 3.0 mi Variable 4.6 mph - 0.04 in   Overcast
5:42 PM 66.9 °F 66.0 °F 97% 29.99 in 2.5 mi Variable 4.6 mph - 0.04 in Rain Light Rain
5:46 PM 66.2 °F 66.2 °F 100% 29.98 in 1.8 mi Variable 5.8 mph - 0.04 in Rain Light Rain
7:09 PM 66.0 °F 64.9 °F 96% 29.97 in 3.0 mi Variable 5.8 mph - 0.01 in Rain Light Rain
7:49 PM 66.2 °F 64.4 °F 94% 29.96 in 3.0 mi North - - 0.03 in   Overcast
7:51 PM 66.0 °F 64.9 °F 96% 29.94 in 3.0 mi North - - 0.03 in   Overcast
8:51 PM 66.0 °F 64.9 °F 96% 29.93 in 3.0 mi Variable 6.9 mph - 0.00 in Rain Light Rain
9:00 PM 66.0 °F 64.9 °F 96% 29.95 in 1.8 mi South 8.1 mph - 0.03 in Rain Rain
9:13 PM 66.0 °F 64.9 °F 96% 29.96 in 1.2 mi Calm Calm - 0.09 in Rain Rain
9:37 PM 66.0 °F 64.9 °F 96% 29.96 in 2.0 mi Variable 3.5 mph - 0.16 in Rain Rain
9:51 PM 66.0 °F 64.9 °F 96% 29.93 in 2.0 mi Variable 3.5 mph - 0.19 in Rain Light Rain
10:51 PM 64.9 °F 64.9 °F 100% 29.93 in 1.5 mi Variable 4.6 mph - 0.16 in Rain Heavy Rain
10:59 PM 64.9 °F 64.9 °F 100% 29.95 in 1.2 mi Calm Calm - 0.06 in Rain Rain
11:29 PM 64.9 °F 64.0 °F 97% 29.94 in 2.5 mi South 3.5 mph - 0.17 in Rain Rain
11:43 PM 64.9 °F 64.9 °F 100% 29.94 in 3.0 mi North - - 0.18 in Rain Light Rain
11:51 PM 64.9 °F 64.9 °F 100% 29.91 in 3.0 mi Variable 3.5 mph - 0.19 in Rain Light Rain